Regional Weather Roundup
Issued by NWS

Home | Current Version | Previous Version | Text Only | Print | Product List | Glossary Off
Versions: 1 2 3 4 5 6 7 8 9 10 11 12 13 14 15 16 17 18 19 20 21 22 23 24 25 26 27 28 29 30 31 32 33 34 35 36 37 38 39 40 41 42 43 44 45 46 47 48 49 50

000
ASUS43 KDTX 180510
RWRMI
MICHIGAN HOURLY REGIONAL WEATHER ROUNDUP
NATIONAL WEATHER SERVICE DETROIT/PONTIAC MI
ISSUED BY NATIONAL WEATHER SERVICE GRAND RAPIDS MI
1200 AM EST WED JAN 18 2017

NOTE: "FAIR" INDICATES FEW OR NO CLOUDS BELOW 12,000 FEET WITH NO
SIGNIFICANT WEATHER AND/OR OBSTRUCTION TO VISIBILITY.

MIZ047>049-052>055-059>063-066>070-074>076-081>083-180600-
SOUTHEAST LOWER MICHIGAN

CITY           SKY/WX    TMP DP  RH WIND       PRES   REMARKS
ADRIAN         CLOUDY    37  36  96 W12       29.94S WCI  29
ALMA           CLOUDY    36  35  97 W6        29.90S WCI  31
ANN ARBOR      CLOUDY    38  37  97 W9        29.92R WCI  31
BAD AXE        FOG       33  33 100 W9        29.86S VSB 1   WCI  26
DETROIT CITY   CLOUDY    37  37 100 W8        29.91R WCI  31
DETROIT        CLOUDY    39  37  92 W8        29.92S WCI  33
FLINT          CLOUDY    36  35  96 W8        29.90R WCI  30
GROSSE ILE     CLOUDY    40  37  89 W7        29.91S WCI  35
HILLSDALE      LGT RAIN  34  34 100 W7        29.92R WCI  28
HOWELL         CLOUDY    36  35  96 W7        29.90S FOG     WCI  31

CITY           SKY/WX    TMP DP  RH WIND       PRES   REMARKS
JACKSON        CLOUDY    37  35  92 W12       29.92R WCI  29
LANSING        CLOUDY    37  34  89 W10       29.92R WCI  30
MASON          CLOUDY    36  36 100 W6        29.91S FOG     WCI  31
MONROE         CLOUDY    39  38  98 W9        29.92S WCI  33
MT. CLEMENS    CLOUDY    38  38  99 W12       29.88R WCI  31
PONTIAC        DRIZZLE   36  34  92 W9        29.88R FOG     WCI  29
PORT HOPE        N/A     34  34 100 W8        29.83R WCI  27
PORT HURON     CLOUDY    36  34  93 W6        29.88R WCI  31
TRI CITIES     CLOUDY    34  34 100 W9        29.89S FOG     WCI  27
YPSILANTI      CLOUDY    39  38  96 W9        29.92R WCI  33
$$
MIZ043>046-050>051-056>058-064>065-071>073-077>080-180600-
SOUTHWEST LOWER MICHIGAN

CITY           SKY/WX    TMP DP  RH WIND       PRES   REMARKS
BATTLE CREEK   CLOUDY    37  36  96 W12       29.94R WCI  29
BENTON HARBOR  CLOUDY    36  34  92 W15       29.97S WCI  27
BIG RAPIDS     LGT SNOW  34  33  96 CALM      29.87F
COLDWATER      CLOUDY    36  36 100 W13G18    29.95R WCI  27
HOLLAND        MIX PCPN  36  35  96 W8        29.94S WCI  30
GRAND RAPIDS   DRIZZLE   36  34  92 W10       29.92R FOG     WCI  28
KALAMAZOO      CLOUDY    37  33  85 W9        29.95R WCI  30
MARSHALL       CLOUDY    36  36  99 W12       29.93R WCI  28
MOUNT PLEASANT CLOUDY    34  34  99 W5        29.88S FOG     WCI  30
MUSKEGON       CLOUDY    36  35  96 W9        29.93S FOG     WCI  29
STURGIS        CLOUDY    35  34  96 W12       29.96R WCI  27
$$
MIZ016>042-180600-
NORTHERN LOWER MICHIGAN

CITY           SKY/WX    TMP DP  RH WIND       PRES   REMARKS
ALPENA         CLOUDY    33  32  96 N6        29.88S FOG     WCI  28
BEAVER ISLAND  CLOUDY    32  32 100 CALM      29.90F FOG
BELLAIRE       FOG       32  32  99 CALM      29.89F VSB 3/4
CADILLAC       CLOUDY    33  32  96 CALM      29.86S FOG
CHARLEVOIX     CLOUDY    32  32 100 CALM      29.92S FOG
GAYLORD        CLOUDY    32  29  88 CALM      29.86S FOG
HOUGHTON LAKE  CLOUDY    33  32  96 NW5       29.86F FOG     WCI  29
MANISTEE       FOG       34  34 100 CALM      29.90R VSB 1/2
OSCODA         CLOUDY    35  34  97 NW5       29.85S FOG     WCI  31
PELLSTON       CLOUDY    32  30  92 CALM      29.90R FOG
TRAVERSE CITY  CLOUDY    34  33  96 CALM      29.88F FOG
LUDINGTON      CLOUDY    36  36 100 CALM      29.90S FOG
$$
MIZ007>008-015-180600-
EASTERN UPPER MICHIGAN

CITY           SKY/WX    TMP DP  RH WIND       PRES   REMARKS
KINROSS        CLOUDY    31  28  89 CALM      29.89R
MACKINAC ISLAN CLOUDY    32  32 100 CALM      29.89R FOG
NEWBERRY       MOCLDY    28  26  94 SW6       29.88S WCI  21
S. S. MARIE    CLOUDY    33  27  78 CALM      29.88R
$$
MIZ004>006-011>014-085-180600-
CENTRAL UPPER MICHIGAN

CITY           SKY/WX    TMP DP  RH WIND       PRES   REMARKS
MANISTIQUE     CLOUDY    32  31  98 CALM      29.90R
ESCANABA       CLOUDY    33  32  96 CALM      29.92R
SAWYER-GWINN   FOG       21  20  96 SW3       29.87S VSB 1/2
$$
MIZ001>003-009>011-084-180600-
WESTERN UPPER MICHIGAN

CITY           SKY/WX    TMP DP  RH WIND       PRES   REMARKS
IRON MOUNTAIN  FOG       21  18  88 SE3       29.88S VSB 1/4
HOUGHTON       CLEAR     27  23  85 W15       29.83F WCI  15
COPPER HARBOR    N/A     23  22  96 CALM      29.84F
IRONWOOD       CLOUDY    26  25  96 SW8       29.89R WCI  18
$$

ABBREVIATIONS USED IN REMARKS
   TC - TEMPERATURE IN CELSIUS
  WCI - WIND CHILL INDEX
   HX - HEAT INDEX
  VSB - VISIBILITY




USA.gov is the U.S. government's official web portal to all federal, state and local government web resources and services.